Regional Weather Roundup
Issued by NWS

Home | Current Version | Previous Version | Text Only | Print | Product List | Glossary On
Versions: 1 2 3 4 5 6 7 8 9 10 11 12 13 14 15 16 17 18 19 20 21 22 23 24 25 26 27 28 29 30 31 32 33 34 35 36 37 38 39 40 41 42 43 44 45 46 47 48 49 50
506
ASUS44 KOUN 040610
RWROK

WEATHER ROUNDUP FOR OKLAHOMA
NATIONAL WEATHER SERVICE NORMAN OK
1200 AM CST SUN DEC 04 2016

NOTE: "FAIR" INDICATES FEW OR NO CLOUDS BELOW 12,000 FEET WITH NO
      SIGNIFICANT WEATHER AND/OR OBSTRUCTIONS TO VISIBILITY.

OKZ001>007-009>012-014-015-017-040700-
NORTHWEST OKLAHOMA AND THE PANHANDLE

CITY           SKY/WX    TMP DP  RH WIND       PRES   REMARKS
GAGE           LGT RAIN  41  39  93 NE5       30.03F FOG
6HR MIN TEMP:  41; 6HR MAX TEMP:  43; 6HR PCP:  0.01;

GUYMON         CLOUDY    38  38 100 NW5       30.04S WCI  34
ENID/WOODRING  DRIZZLE   43  43 100 CALM      30.03F
$$

OKZ016-021>023-033>039-044-045-040700-
SOUTHWEST OKLAHOMA

CITY           SKY/WX    TMP DP  RH WIND       PRES   REMARKS
LAWTON/REGL    CLOUDY    45  44  97 CALM      30.02S
6HR MIN TEMP:  45; 6HR MAX TEMP:  45;

LAWTON/FT SILL CLOUDY    45  45 100 CALM      30.00F
FREDERICK      LGT RAIN  44  44 100 E7        29.99F FOG
CLINTON        LGT RAIN  43  41  93 NE3       30.04S
HOBART         LGT RAIN  44  43  96 E7        30.03F FOG
ALTUS AFB      LGT RAIN  44  42  92 E2        30.02S
$$

OKZ018>020-024>031-040700-
CENTRAL OKLAHOMA

CITY           SKY/WX    TMP DP  RH WIND       PRES   REMARKS
OKLAHOMA CITY  CLOUDY    44  43  96 E6        30.01F FOG
6HR MIN TEMP:  44; 6HR MAX TEMP:  44; 6HR PCP:  0.02;

OKC/WILEY POST CLOUDY    44  42  93 E6        30.02F FOG
OKC/TINKER AFB CLOUDY    43  43 100 E3        30.00F FOG
STILLWATER     CLOUDY    44  43  96 E5        30.04F FOG
GUTHRIE        CLOUDY    43  42  97 E7        30.03F FOG
$$

OKZ008-013-054>072-040700-
NORTHEAST OKLAHOMA

CITY           SKY/WX    TMP DP  RH WIND       PRES   REMARKS
TULSA          DRIZZLE   44  44 100 E5        30.05F FOG
6HR MIN TEMP:  44; 6HR MAX TEMP:  46; 6HR PCP:  0.05;

TULSA/JONES    CLOUDY    45  42  89 E5        30.05F
PONCA CITY     CLOUDY    44  41  89 SE7       30.05S FOG
BARTLESVILLE   CLOUDY    43  41  93 E6        30.08F FOG
MUSKOGEE       CLOUDY    44  43  96 SE9       30.06F
$$

OKZ032-040>043-046>053-073>077-040700-
SOUTH CENTRAL/SOUTHEAST OKLAHOMA

CITY           SKY/WX    TMP DP  RH WIND       PRES   REMARKS
ARDMORE/DWNTWN CLOUDY    45  43  93 E6        29.99F
MCALESTER      CLOUDY    46  43  89 NE3       30.02F FOG
$$





USA.gov is the U.S. government's official web portal to all federal, state and local government web resources and services.